Time,TemperatureF,DewpointF,PressureIn,WindDirection,WindDirectionDegrees,WindSpeedMPH,WindSpeedGustMPH,Humidity,HourlyPrecipIn,Conditions,Clouds,dailyrainin,SoftwareType,DateUTC
2013-07-29 06:18:00,70.2,52.7,29.62,SW,225,0.0,0.0,54,0.00,,,0.00,WUHU216HW,2013-07-29 13:18:00,
2013-07-29 06:19:00,70.2,52.7,29.62,SW,225,0.0,0.0,54,0.00,,,0.00,WUHU216HW,2013-07-29 13:19:00,
2013-07-29 06:24:00,70.2,52.7,29.62,SW,225,0.0,0.0,54,0.00,,,0.00,WUHU216HW,2013-07-29 13:24:00,
2013-07-29 07:00:00,55.8,50.1,29.66,West,270,0.7,0.7,81,0.00,,,0.00,WUHU216HW,2013-07-29 14:00:00,
2013-07-29 07:05:00,55.8,50.1,29.66,NW,315,0.0,0.7,81,0.00,,,0.00,WUHU216HW,2013-07-29 14:05:00,
2013-07-29 07:10:00,56.0,50.2,29.66,NW,315,0.0,0.7,81,0.00,,,0.00,WUHU216HW,2013-07-29 14:10:00,
2013-07-29 07:15:00,56.2,50.4,29.66,WSW,248,0.7,0.7,81,0.00,,,0.00,WUHU216HW,2013-07-29 14:15:00,
2013-07-29 07:21:00,56.3,50.6,29.66,WSW,248,0.0,0.7,81,0.00,,,0.00,WUHU216HW,2013-07-29 14:21:00,
2013-07-29 07:26:00,56.5,50.8,29.66,ESE,113,0.4,0.4,81,0.00,,,0.00,WUHU216HW,2013-07-29 14:26:00,
2013-07-29 07:31:00,57.1,50.9,29.66,WSW,248,0.0,0.4,80,0.00,,,0.00,WUHU216HW,2013-07-29 14:31:00,
2013-07-29 07:36:00,57.2,50.8,29.67,WSW,248,0.0,1.1,79,0.00,,,0.00,WUHU216HW,2013-07-29 14:36:00,
2013-07-29 07:41:00,57.8,51.3,29.67,WSW,248,0.0,1.1,79,0.00,,,0.00,WUHU216HW,2013-07-29 14:41:00,
2013-07-29 07:46:00,58.0,51.5,29.67,WSW,248,0.0,1.1,79,0.00,,,0.00,WUHU216HW,2013-07-29 14:46:00,
2013-07-29 07:51:00,58.5,51.7,29.67,WSW,248,0.2,0.9,78,0.00,,,0.00,WUHU216HW,2013-07-29 14:51:00,
2013-07-29 07:56:00,58.5,51.3,29.67,WSW,248,0.0,0.9,77,0.00,,,0.00,WUHU216HW,2013-07-29 14:56:00,
2013-07-29 08:02:00,58.5,51.3,29.67,NE,45,0.2,0.7,77,0.00,,,0.00,WUHU216HW,2013-07-29 15:02:00,
2013-07-29 08:07:00,58.7,51.5,29.67,WSW,248,0.2,0.4,77,0.00,,,0.00,WUHU216HW,2013-07-29 15:07:00,
2013-07-29 08:12:00,58.7,51.5,29.67,WSW,248,0.0,1.8,77,0.00,,,0.00,WUHU216HW,2013-07-29 15:12:00,
2013-07-29 08:17:00,58.7,51.5,29.67,WSW,248,0.4,1.8,77,0.00,,,0.00,WUHU216HW,2013-07-29 15:17:00,
2013-07-29 08:22:00,58.9,51.7,29.67,West,270,0.9,0.9,77,0.00,,,0.00,WUHU216HW,2013-07-29 15:22:00,
2013-07-29 08:28:00,59.0,51.8,29.67,WSW,248,0.0,0.9,77,0.00,,,0.00,WUHU216HW,2013-07-29 15:28:00,
2013-07-29 08:33:00,59.4,51.8,29.67,West,270,0.0,2.0,76,0.00,,,0.00,WUHU216HW,2013-07-29 15:33:00,
2013-07-29 08:38:00,59.9,52.7,29.67,WSW,248,0.0,2.0,77,0.00,,,0.00,WUHU216HW,2013-07-29 15:38:00,
2013-07-29 08:43:00,60.8,53.3,29.67,WSW,248,0.0,0.2,76,0.00,,,0.00,WUHU216HW,2013-07-29 15:43:00,
2013-07-29 08:48:00,61.9,53.9,29.67,NNE,23,0.0,0.2,75,0.00,,,0.00,WUHU216HW,2013-07-29 15:48:00,
2013-07-29 08:53:00,62.5,54.0,29.67,North,0,0.0,0.2,74,0.00,,,0.00,WUHU216HW,2013-07-29 15:53:00,
2013-07-29 08:58:00,63.0,54.5,29.67,North,0,0.0,0.2,74,0.00,,,0.00,WUHU216HW,2013-07-29 15:58:00,
2013-07-29 09:03:00,63.4,53.8,29.67,NNW,338,0.0,1.6,71,0.00,,,0.00,WUHU216HW,2013-07-29 16:03:00,
2013-07-29 09:08:00,63.0,53.5,29.67,SSW,203,0.4,1.8,71,0.00,,,0.00,WUHU216HW,2013-07-29 16:08:00,
2013-07-29 09:13:00,63.0,53.1,29.67,SSE,158,0.2,1.8,70,0.00,,,0.00,WUHU216HW,2013-07-29 16:13:00,
2013-07-29 09:18:00,63.0,53.8,29.67,SW,225,1.8,1.8,72,0.00,,,0.00,WUHU216HW,2013-07-29 16:18:00,
2013-07-29 09:23:00,63.5,53.6,29.66,West,270,0.2,1.8,70,0.00,,,0.00,WUHU216HW,2013-07-29 16:23:00,
2013-07-29 09:28:00,63.7,53.8,29.66,SW,225,0.0,1.8,70,0.00,,,0.00,WUHU216HW,2013-07-29 16:28:00,
2013-07-29 09:34:00,63.5,53.6,29.67,SW,225,0.4,1.1,70,0.00,,,0.00,WUHU216HW,2013-07-29 16:34:00,
2013-07-29 09:39:00,63.7,53.8,29.66,NW,315,0.2,1.1,70,0.00,,,0.00,WUHU216HW,2013-07-29 16:39:00,
2013-07-29 09:44:00,64.1,53.7,29.66,WSW,248,0.0,0.4,69,0.00,,,0.00,WUHU216HW,2013-07-29 16:44:00,
2013-07-29 09:49:00,64.3,53.9,29.66,NNW,338,0.0,0.9,69,0.00,,,0.00,WUHU216HW,2013-07-29 16:49:00,
2013-07-29 09:54:00,64.6,54.3,29.67,SE,135,0.2,1.1,69,0.00,,,0.00,WUHU216HW,2013-07-29 16:54:00,
2013-07-29 09:59:00,64.8,53.6,29.66,WSW,248,0.7,1.1,67,0.00,,,0.00,WUHU216HW,2013-07-29 16:59:00,
2013-07-29 10:04:00,64.3,53.1,29.66,West,270,0.2,1.1,67,0.00,,,0.00,WUHU216HW,2013-07-29 17:04:00,
2013-07-29 10:09:00,64.3,53.1,29.66,WSW,248,1.8,1.8,67,0.00,,,0.00,WUHU216HW,2013-07-29 17:09:00,
2013-07-29 10:14:00,64.1,53.3,29.66,WSW,248,0.2,1.8,68,0.00,,,0.00,WUHU216HW,2013-07-29 17:14:00,
2013-07-29 10:19:00,64.8,53.6,29.66,North,0,0.2,1.8,67,0.00,,,0.00,WUHU216HW,2013-07-29 17:19:00,
2013-07-29 10:25:00,65.0,53.7,29.66,WSW,248,0.9,0.9,67,0.00,,,0.00,WUHU216HW,2013-07-29 17:25:00,
2013-07-29 10:30:00,65.7,54.0,29.66,NNW,338,0.0,0.9,66,0.00,,,0.00,WUHU216HW,2013-07-29 17:30:00,
2013-07-29 10:35:00,65.9,53.7,29.66,WSW,248,1.1,1.1,65,0.00,,,0.00,WUHU216HW,2013-07-29 17:35:00,
2013-07-29 10:41:00,65.2,53.1,29.66,WNW,293,0.4,1.6,65,0.00,,,0.00,WUHU216HW,2013-07-29 17:41:00,
2013-07-29 10:46:00,65.7,54.0,29.66,North,0,0.0,1.6,66,0.00,,,0.00,WUHU216HW,2013-07-29 17:46:00,
2013-07-29 10:51:00,66.2,54.1,29.66,West,270,0.0,0.9,65,0.00,,,0.00,WUHU216HW,2013-07-29 17:51:00,
2013-07-29 10:56:00,66.1,53.5,29.66,South,180,0.2,2.5,64,0.00,,,0.00,WUHU216HW,2013-07-29 17:56:00,
2013-07-29 11:01:00,65.9,53.4,29.66,WSW,248,2.5,3.4,64,0.00,,,0.00,WUHU216HW,2013-07-29 18:01:00,
2013-07-29 11:06:00,65.9,53.7,29.66,SW,225,1.1,3.4,65,0.00,,,0.00,WUHU216HW,2013-07-29 18:06:00,
2013-07-29 11:11:00,66.4,54.3,29.66,ENE,68,0.4,2.5,65,0.00,,,0.00,WUHU216HW,2013-07-29 18:11:00,
2013-07-29 11:16:00,66.6,53.7,29.66,WSW,248,0.9,2.2,63,0.00,,,0.00,WUHU216HW,2013-07-29 18:16:00,
2013-07-29 11:21:00,66.2,53.3,29.66,WSW,248,1.1,2.9,63,0.00,,,0.00,WUHU216HW,2013-07-29 18:21:00,
2013-07-29 11:27:00,66.4,53.8,29.66,WSW,248,1.3,2.9,64,0.00,,,0.00,WUHU216HW,2013-07-29 18:27:00,
2013-07-29 11:32:00,66.8,54.2,29.66,SW,225,2.5,2.5,64,0.00,,,0.00,WUHU216HW,2013-07-29 18:32:00,
2013-07-29 11:37:00,67.5,54.9,29.66,ENE,68,0.4,2.5,64,0.00,,,0.00,WUHU216HW,2013-07-29 18:37:00,
2013-07-29 11:42:00,67.9,55.2,29.65,SSW,203,1.1,2.5,64,0.00,,,0.00,WUHU216HW,2013-07-29 18:42:00,
2013-07-29 11:47:00,68.9,55.8,29.65,ENE,68,0.2,1.1,63,0.00,,,0.00,WUHU216HW,2013-07-29 18:47:00,
2013-07-29 11:52:00,69.5,55.9,29.65,North,0,0.4,1.1,62,0.00,,,0.00,WUHU216HW,2013-07-29 18:52:00,
2013-07-29 11:57:00,69.8,55.4,29.65,East,90,0.0,0.7,60,0.00,,,0.00,WUHU216HW,2013-07-29 18:57:00,
2013-07-29 12:02:00,68.9,54.5,29.65,South,180,1.3,1.8,60,0.00,,,0.00,WUHU216HW,2013-07-29 19:02:00,
2013-07-29 12:07:00,68.4,53.6,29.65,SW,225,1.6,1.8,59,0.00,,,0.00,WUHU216HW,2013-07-29 19:07:00,
2013-07-29 12:12:00,67.5,54.0,29.65,NNE,23,0.0,4.0,62,0.00,,,0.00,WUHU216HW,2013-07-29 19:12:00,
2013-07-29 12:17:00,68.0,54.6,29.65,SSE,158,0.7,4.0,62,0.00,,,0.00,WUHU216HW,2013-07-29 19:17:00,
2013-07-29 12:23:00,68.9,55.0,29.65,WSW,248,1.1,3.4,61,0.00,,,0.00,WUHU216HW,2013-07-29 19:23:00,
2013-07-29 12:28:00,69.5,55.1,29.65,West,270,1.1,1.1,60,0.00,,,0.00,WUHU216HW,2013-07-29 19:28:00,
2013-07-29 12:33:00,69.8,54.5,29.64,WSW,248,3.1,3.1,58,0.00,,,0.00,WUHU216HW,2013-07-29 19:33:00,
2013-07-29 12:38:00,69.8,54.5,29.64,SE,135,0.9,3.1,58,0.00,,,0.00,WUHU216HW,2013-07-29 19:38:00,
2013-07-29 12:43:00,70.4,55.5,29.65,NE,45,0.4,1.1,59,0.00,,,0.00,WUHU216HW,2013-07-29 19:43:00,
2013-07-29 12:48:00,70.6,55.1,29.65,WSW,248,3.6,3.6,58,0.00,,,0.00,WUHU216HW,2013-07-29 19:48:00,
2013-07-29 12:53:00,70.0,54.6,29.65,SSE,158,0.7,3.6,58,0.00,,,0.00,WUHU216HW,2013-07-29 19:53:00,
2013-07-29 12:58:00,70.6,55.6,29.65,WSW,248,1.8,3.6,59,0.00,,,0.00,WUHU216HW,2013-07-29 19:58:00,
2013-07-29 13:03:00,70.9,55.5,29.65,SE,135,1.6,2.5,58,0.00,,,0.00,WUHU216HW,2013-07-29 20:03:00,
2013-07-29 13:08:00,70.6,54.5,29.65,WSW,248,0.9,1.8,57,0.00,,,0.00,WUHU216HW,2013-07-29 20:08:00,
2013-07-29 13:14:00,70.9,54.9,29.65,WSW,248,0.4,1.6,57,0.00,,,0.00,WUHU216HW,2013-07-29 20:14:00,
2013-07-29 13:19:00,71.5,55.4,29.65,SW,225,1.8,1.8,57,0.00,,,0.00,WUHU216HW,2013-07-29 20:19:00,
2013-07-29 13:24:00,71.6,55.5,29.65,ESE,113,0.4,1.8,57,0.00,,,0.00,WUHU216HW,2013-07-29 20:24:00,
2013-07-29 13:29:00,72.2,56.1,29.65,SSW,203,0.4,1.8,57,0.00,,,0.00,WUHU216HW,2013-07-29 20:29:00,
2013-07-29 13:34:00,72.0,54.9,29.65,SW,225,0.4,2.0,55,0.00,,,0.00,WUHU216HW,2013-07-29 20:34:00,
2013-07-29 13:39:00,72.7,55.5,29.64,ENE,68,1.1,2.0,55,0.00,,,0.00,WUHU216HW,2013-07-29 20:39:00,
2013-07-29 13:45:00,73.3,56.0,29.64,NNW,338,0.7,2.7,55,0.00,,,0.00,WUHU216HW,2013-07-29 20:45:00,
2013-07-29 13:50:00,73.6,55.4,29.64,SSE,158,1.1,2.7,53,0.00,,,0.00,WUHU216HW,2013-07-29 20:50:00,
2013-07-29 13:55:00,73.4,55.6,29.64,NNE,23,0.0,2.5,54,0.00,,,0.00,WUHU216HW,2013-07-29 20:55:00,
2013-07-29 14:00:00,73.6,55.8,29.64,East,90,0.4,1.1,54,0.00,,,0.00,WUHU216HW,2013-07-29 21:00:00,
2013-07-29 14:05:00,74.0,56.2,29.64,SE,135,0.0,0.7,54,0.00,,,0.00,WUHU216HW,2013-07-29 21:05:00,
2013-07-29 14:10:00,74.0,55.2,29.63,NE,45,1.1,1.8,52,0.00,,,0.00,WUHU216HW,2013-07-29 21:10:00,
2013-07-29 14:15:00,74.3,55.5,29.63,West,270,0.4,2.5,52,0.00,,,0.00,WUHU216HW,2013-07-29 21:15:00,
2013-07-29 14:20:00,74.7,55.5,29.63,SW,225,1.6,2.5,51,0.00,,,0.00,WUHU216HW,2013-07-29 21:20:00,
2013-07-29 14:26:00,75.1,56.3,29.63,SW,225,0.9,2.9,52,0.00,,,0.00,WUHU216HW,2013-07-29 21:26:00,
2013-07-29 14:31:00,76.0,56.1,29.63,WSW,248,0.2,2.9,50,0.00,,,0.00,WUHU216HW,2013-07-29 21:31:00,
2013-07-29 14:36:00,76.0,55.4,29.63,WSW,248,0.4,1.8,49,0.00,,,0.00,WUHU216HW,2013-07-29 21:36:00,
2013-07-29 14:41:00,76.0,55.4,29.63,WSW,248,0.7,1.8,49,0.00,,,0.00,WUHU216HW,2013-07-29 21:41:00,
2013-07-29 14:46:00,75.6,55.2,29.63,WSW,248,3.1,3.1,49,0.00,,,0.00,WUHU216HW,2013-07-29 21:46:00,
2013-07-29 14:51:00,75.8,54.7,29.63,WSW,248,1.6,3.1,48,0.00,,,0.00,WUHU216HW,2013-07-29 21:51:00,
2013-07-29 14:57:00,76.3,55.8,29.63,NNE,23,0.2,3.1,49,0.00,,,0.00,WUHU216HW,2013-07-29 21:57:00,
2013-07-29 15:02:00,76.7,55.5,29.63,ESE,113,0.7,1.8,48,0.00,,,0.00,WUHU216HW,2013-07-29 22:02:00,
2013-07-29 15:07:00,77.0,55.3,29.63,WSW,248,1.1,1.8,47,0.00,,,0.00,WUHU216HW,2013-07-29 22:07:00,
2013-07-29 15:12:00,76.9,54.5,29.63,WSW,248,3.4,3.4,46,0.00,,,0.00,WUHU216HW,2013-07-29 22:12:00,
2013-07-29 15:17:00,76.5,54.7,29.62,West,270,0.2,3.4,47,0.00,,,0.00,WUHU216HW,2013-07-29 22:17:00,
2013-07-29 15:23:00,76.7,54.3,29.63,NW,315,0.0,3.4,46,0.00,,,0.00,WUHU216HW,2013-07-29 22:23:00,
2013-07-29 15:28:00,77.4,55.5,29.62,SSW,203,0.9,1.1,47,0.00,,,0.00,WUHU216HW,2013-07-29 22:28:00,
2013-07-29 15:34:00,77.8,55.3,29.62,West,270,1.8,1.8,46,0.00,,,0.00,WUHU216HW,2013-07-29 22:34:00,
2013-07-29 15:39:00,77.8,54.6,29.62,SE,135,0.4,1.8,45,0.00,,,0.00,WUHU216HW,2013-07-29 22:39:00,
2013-07-29 15:45:00,78.1,55.6,29.62,ENE,68,0.4,1.1,46,0.00,,,0.00,WUHU216HW,2013-07-29 22:45:00,
2013-07-29 15:50:00,78.3,54.6,29.62,WSW,248,0.2,1.1,44,0.00,,,0.00,WUHU216HW,2013-07-29 22:50:00,
2013-07-29 15:55:00,78.5,55.3,29.62,SW,225,0.4,1.1,45,0.00,,,0.00,WUHU216HW,2013-07-29 22:55:00,
2013-07-29 16:00:00,78.8,55.0,29.61,WSW,248,0.9,1.6,44,0.00,,,0.00,WUHU216HW,2013-07-29 23:00:00,
2013-07-29 16:05:00,79.0,55.2,29.61,NE,45,0.2,1.6,44,0.00,,,0.00,WUHU216HW,2013-07-29 23:05:00,
2013-07-29 16:10:00,79.0,55.2,29.61,ENE,68,1.1,1.1,44,0.00,,,0.00,WUHU216HW,2013-07-29 23:10:00,
2013-07-29 16:15:00,79.4,55.5,29.61,NE,45,0.2,1.1,44,0.00,,,0.00,WUHU216HW,2013-07-29 23:15:00,
2013-07-29 16:20:00,79.6,55.1,29.61,North,0,0.4,2.0,43,0.00,,,0.00,WUHU216HW,2013-07-29 23:20:00,
2013-07-29 16:25:00,80.1,56.2,29.61,WNW,293,0.0,2.0,44,0.00,,,0.00,WUHU216HW,2013-07-29 23:25:00,
2013-07-29 16:30:00,80.1,55.5,29.61,NE,45,0.0,0.9,43,0.00,,,0.00,WUHU216HW,2013-07-29 23:30:00,
2013-07-29 16:36:00,80.1,54.9,29.61,SW,225,0.4,3.4,42,0.00,,,0.00,WUHU216HW,2013-07-29 23:36:00,
2013-07-29 16:41:00,79.9,54.7,29.61,SW,225,0.2,3.4,42,0.00,,,0.00,WUHU216HW,2013-07-29 23:41:00,
2013-07-29 16:46:00,79.6,54.5,29.61,North,0,0.0,0.4,42,0.00,,,0.00,WUHU216HW,2013-07-29 23:46:00,
2013-07-29 16:51:00,79.6,55.1,29.61,North,0,0.0,0.2,43,0.00,,,0.00,WUHU216HW,2013-07-29 23:51:00,
2013-07-29 16:56:00,79.7,55.8,29.61,SSE,158,0.0,1.6,44,0.00,,,0.00,WUHU216HW,2013-07-29 23:56:00,
2013-07-29 17:01:00,79.7,55.2,29.61,SSE,158,0.2,1.6,43,0.00,,,0.00,WUHU216HW,2013-07-30 00:01:00,
2013-07-29 17:07:00,79.7,55.8,29.60,East,90,0.0,0.2,44,0.00,,,0.00,WUHU216HW,2013-07-30 00:07:00,
2013-07-29 17:12:00,80.5,55.9,29.60,SW,225,3.1,3.1,43,0.00,,,0.00,WUHU216HW,2013-07-30 00:12:00,
2013-07-29 17:17:00,81.0,57.0,29.60,ENE,68,0.4,3.1,44,0.00,,,0.00,WUHU216HW,2013-07-30 00:17:00,
2013-07-29 17:22:00,82.8,58.0,29.60,ENE,68,0.0,0.4,43,0.00,,,0.00,WUHU216HW,2013-07-30 00:22:00,
2013-07-29 17:27:00,83.3,56.6,29.60,SW,225,0.7,1.1,40,0.00,,,0.00,WUHU216HW,2013-07-30 00:27:00,
2013-07-29 17:32:00,84.1,57.2,29.60,NW,315,0.0,2.0,40,0.00,,,0.00,WUHU216HW,2013-07-30 00:32:00,
2013-07-29 17:37:00,85.0,58.1,29.60,SE,135,0.0,2.0,40,0.00,,,0.00,WUHU216HW,2013-07-30 00:37:00,
2013-07-29 17:42:00,85.5,57.8,29.61,SW,225,0.4,0.4,39,0.00,,,0.00,WUHU216HW,2013-07-30 00:42:00,
2013-07-29 17:47:00,86.6,58.8,29.60,NNE,23,0.0,0.4,39,0.00,,,0.00,WUHU216HW,2013-07-30 00:47:00,
2013-07-29 17:52:00,86.4,57.0,29.60,WSW,248,0.0,0.4,37,0.00,,,0.00,WUHU216HW,2013-07-30 00:52:00,
2013-07-29 17:58:00,87.1,59.2,29.60,WSW,248,0.0,0.0,39,0.00,,,0.00,WUHU216HW,2013-07-30 00:58:00,
2013-07-29 18:03:00,87.8,59.0,29.60,WSW,248,0.0,0.0,38,0.00,,,0.00,WUHU216HW,2013-07-30 01:03:00,
2013-07-29 18:08:00,88.4,57.9,29.60,West,270,1.6,2.9,36,0.00,,,0.00,WUHU216HW,2013-07-30 01:08:00,
2013-07-29 18:13:00,89.5,58.8,29.60,WNW,293,0.2,2.9,36,0.00,,,0.00,WUHU216HW,2013-07-30 01:13:00,
2013-07-29 18:18:00,90.0,58.5,29.60,NNE,23,0.4,1.6,35,0.00,,,0.00,WUHU216HW,2013-07-30 01:18:00,
2013-07-29 18:23:00,90.0,57.7,29.60,West,270,0.9,2.0,34,0.00,,,0.00,WUHU216HW,2013-07-30 01:23:00,
2013-07-29 18:28:00,87.7,55.6,29.60,West,270,0.9,2.5,34,0.00,,,0.00,WUHU216HW,2013-07-30 01:28:00,
2013-07-29 18:33:00,85.0,54.1,29.60,West,270,3.1,3.1,35,0.00,,,0.00,WUHU216HW,2013-07-30 01:33:00,
2013-07-29 18:38:00,82.6,54.4,29.60,WNW,293,1.3,3.1,38,0.00,,,0.00,WUHU216HW,2013-07-30 01:38:00,
2013-07-29 18:43:00,82.1,53.9,29.60,SW,225,0.4,3.1,38,0.00,,,0.00,WUHU216HW,2013-07-30 01:43:00,
2013-07-29 18:48:00,81.4,54.8,29.60,NNW,338,1.1,1.3,40,0.00,,,0.00,WUHU216HW,2013-07-30 01:48:00,
2013-07-29 18:53:00,80.5,54.6,29.60,WSW,248,0.4,1.1,41,0.00,,,0.00,WUHU216HW,2013-07-30 01:53:00,
2013-07-29 18:59:00,79.9,54.7,29.60,WSW,248,0.0,0.4,42,0.00,,,0.00,WUHU216HW,2013-07-30 01:59:00,
2013-07-29 19:04:00,79.4,54.3,29.61,SW,225,0.0,1.8,42,0.00,,,0.00,WUHU216HW,2013-07-30 02:04:00,
2013-07-29 19:09:00,78.8,54.4,29.61,WNW,293,1.1,1.8,43,0.00,,,0.00,WUHU216HW,2013-07-30 02:09:00,
2013-07-29 19:14:00,78.5,54.1,29.61,West,270,0.0,1.1,43,0.00,,,0.00,WUHU216HW,2013-07-30 02:14:00,
2013-07-29 19:19:00,78.3,55.2,29.61,WSW,248,2.9,2.9,45,0.00,,,0.00,WUHU216HW,2013-07-30 02:19:00,
2013-07-29 19:24:00,78.1,55.0,29.61,SW,225,1.6,2.9,45,0.00,,,0.00,WUHU216HW,2013-07-30 02:24:00,
2013-07-29 19:29:00,77.6,55.1,29.62,NW,315,1.1,3.4,46,0.00,,,0.00,WUHU216HW,2013-07-30 02:29:00,
2013-07-29 19:35:00,76.9,55.1,29.62,WSW,248,2.5,3.4,47,0.00,,,0.00,WUHU216HW,2013-07-30 02:35:00,
2013-07-29 19:40:00,76.1,55.0,29.62,WNW,293,1.8,3.4,48,0.00,,,0.00,WUHU216HW,2013-07-30 02:40:00,
2013-07-29 19:45:00,75.6,54.5,29.62,West,270,2.5,3.4,48,0.00,,,0.00,WUHU216HW,2013-07-30 02:45:00,
2013-07-29 19:50:00,75.2,54.8,29.62,West,270,2.5,3.4,49,0.00,,,0.00,WUHU216HW,2013-07-30 02:50:00,
2013-07-29 19:55:00,75.1,54.6,29.62,SW,225,2.0,2.5,49,0.00,,,0.00,WUHU216HW,2013-07-30 02:55:00,
2013-07-29 20:00:00,74.7,54.9,29.62,NW,315,0.4,2.5,50,0.00,,,0.00,WUHU216HW,2013-07-30 03:00:00,
2013-07-29 20:05:00,74.3,54.5,29.62,West,270,0.0,2.2,50,0.00,,,0.00,WUHU216HW,2013-07-30 03:05:00,
2013-07-29 20:10:00,74.2,54.9,29.62,West,270,0.2,0.9,51,0.00,,,0.00,WUHU216HW,2013-07-30 03:10:00,
2013-07-29 20:15:00,73.8,54.6,29.63,NW,315,0.4,0.4,51,0.00,,,0.00,WUHU216HW,2013-07-30 03:15:00,
2013-07-29 20:21:00,73.8,54.6,29.63,NW,315,0.0,0.4,51,0.00,,,0.00,WUHU216HW,2013-07-30 03:21:00,
2013-07-29 20:26:00,73.4,54.6,29.63,WNW,293,0.0,0.0,52,0.00,,,0.00,WUHU216HW,2013-07-30 03:26:00,
2013-07-29 20:31:00,72.9,54.2,29.63,WNW,293,0.0,0.0,52,0.00,,,0.00,WUHU216HW,2013-07-30 03:31:00,
2013-07-29 20:37:00,72.7,54.6,29.63,WNW,293,0.0,0.0,53,0.00,,,0.00,WUHU216HW,2013-07-30 03:37:00,
2013-07-29 20:42:00,72.5,54.4,29.63,WNW,293,0.0,0.0,53,0.00,,,0.00,WUHU216HW,2013-07-30 03:42:00,
2013-07-29 20:47:00,72.4,54.2,29.63,WNW,293,0.0,0.0,53,0.00,,,0.00,WUHU216HW,2013-07-30 03:47:00,
2013-07-29 20:52:00,72.2,54.0,29.64,West,270,0.0,0.0,53,0.00,,,0.00,WUHU216HW,2013-07-30 03:52:00,
2013-07-29 20:57:00,71.8,53.7,29.64,West,270,0.0,0.0,53,0.00,,,0.00,WUHU216HW,2013-07-30 03:57:00,
2013-07-29 21:01:00,71.3,53.7,29.64,West,270,0.0,0.0,54,0.00,,,0.00,WUHU216HW,2013-07-30 04:01:00,
2013-07-29 21:07:00,70.9,53.4,29.65,West,270,0.0,0.0,54,0.00,,,0.00,WUHU216HW,2013-07-30 04:07:00,
2013-07-29 21:12:00,70.4,53.4,29.65,West,270,0.0,0.0,55,0.00,,,0.00,WUHU216HW,2013-07-30 04:12:00,
2013-07-29 21:17:00,69.8,52.9,29.65,West,270,0.0,0.0,55,0.00,,,0.00,WUHU216HW,2013-07-30 04:17:00,
2013-07-29 21:20:00,69.5,53.1,29.65,West,270,0.0,0.0,56,0.00,,,0.00,WUHU216HW,2013-07-30 04:20:00,